This is the latest recevied weather packets stored in our database for station/object KG5WBN. If no packets are shown the sender has not sent any weather packets the latest 10 day(s).
| Time | Temp. | Humidity | Pressure | Rain* | Wind** | Luminosity | Snow |
|---|---|---|---|---|---|---|---|
| 1787593715 | 34.44° C | 42% | 1015.2 hPa | 0 mm | - | 245 W/m² | - |
| 1787593411 | 34.44° C | 42% | 1015.6 hPa | 0 mm | - | 324 W/m² | - |
| 1787593106 | 35.56° C | 42% | 1015.6 hPa | 0 mm | - | 165 W/m² | - |
| 1787592800 | 35° C | 42% | 1015.6 hPa | 0 mm | - | 370 W/m² | - |
| 1787592501 | 35° C | 42% | 1015.6 hPa | 0 mm | - | 352 W/m² | - |
| 1787592201 | 35° C | 42% | 1015.6 hPa | 0 mm | - | 337 W/m² | - |
| 1787591897 | 35° C | 48% | 1015.6 hPa | 0 mm | - | 347 W/m² | - |
| 1787591592 | 35° C | 49% | 1015.6 hPa | 0 mm | - | 347 W/m² | - |
| 1787591288 | 34.44° C | 45% | 1015.2 hPa | 0 mm | - | 337 W/m² | - |
| 1787590983 | 34.44° C | 47% | 1015.6 hPa | 0 mm | - | 341 W/m² | - |
| 1787590679 | 33.89° C | 48% | 1015.6 hPa | 0 mm | - | 331 W/m² | - |
| 1787590374 | 34.44° C | 50% | 1015.6 hPa | 0 mm | - | 326 W/m² | - |
| 1787590069 | 33.89° C | 53% | 1015.9 hPa | 0 mm | - | 315 W/m² | - |
| 1787589764 | 33.89° C | 53% | 1016.3 hPa | 0 mm | - | 203 W/m² | - |
| 1787589454 | 33.89° C | 53% | 1016.3 hPa | 0 mm | - | 203 W/m² | - |
| 1787589149 | 34.44° C | 49% | 1016.3 hPa | 0 mm | - | 329 W/m² | - |
| 1787588844 | 34.44° C | 44% | 1015.9 hPa | 0 mm | - | 319 W/m² | - |
| 1787588541 | 34.44° C | 52% | 1015.9 hPa | 0 mm | - | 322 W/m² | - |
| 1787588236 | 34.44° C | 52% | 1016.3 hPa | 0 mm | - | 249 W/m² | - |
| 1787587931 | 32.78° C | 54% | 1015.9 hPa | 0 mm | - | 326 W/m² | - |
| 1787587627 | 32.78° C | 55% | 1016.3 hPa | 0 mm | - | 137 W/m² | - |
| 1787587321 | 33.33° C | 54% | 1016.3 hPa | 0 mm | - | 157 W/m² | - |
| 1787587020 | 32.78° C | 55% | 1016.3 hPa | 0 mm | - | 204 W/m² | - |
| 1787586715 | 33.33° C | 53% | 1016.3 hPa | 0 mm | - | 152 W/m² | - |
| 1787586411 | 33.33° C | 53% | 1015.9 hPa | 0 mm | - | 289 W/m² | - |
* Rain latest hour (hover to see other rain measurements)
** Current wind speed in m/s (hover to see current wind gust speed)